Abilene, TX

4:18 AM CST on December 14, 2017 (GMT -0600)
Abilene Regional

Weather History for KABI - October, 2012

Change the Weather History Date:

Thursday, October 18, 2012

  Actual Average Record
Temperature  
Mean Temperature 62 °F 65 °F  
Max Temperature 75 °F 77 °F 91 °F (1921)
Min Temperature 49 °F 54 °F 32 °F (1948)
Degree Days  
Heating Degree Days 3 3  
Month to date heating degree days 54 36  
Since 1 July heating degree days 60 47  
Cooling Degree Days 0 3  
Month to date cooling degree days 71 86  
Year to date cooling degree days 2944 2357  
Growing Degree Days 14 (Base 50)    
Moisture  
Dew Point 31 °F    
Average Humidity 37    
Maximum Humidity 59    
Minimum Humidity 15    
Precipitation  
Precipitation 0.00 in 0.12 in 1.73 in (1965)
Month to date precipitation 0.23 1.77  
Year to date precipitation 22.37 20.97  
Sea Level Pressure  
Sea Level Pressure 29.95 in    
Wind  
Wind Speed 4 mph (ENE)    
Max Wind Speed 14 mph    
Max Gust Speed 20 mph    
Visibility 10 miles    
Events      
T = Trace of Precipitation, MM = Missing Value Source: NWS Daily Summary

Daily Weather History Graph

Daily Weather History Graph

Search for Another Location

Airport or City:

Trip Planner

Search our weather history database for the weather conditions in past years. The results will help you decide how hot, cold, wet, or windy it might be!

Date:

Astronomy

Oct. 18, 2012 Rise Set
Actual Time 7:45 AM CDT 7:01 PM CDT
Civil Twilight 7:20 AM CDT 7:26 PM CDT
Nautical Twilight 6:51 AM CDT 7:55 PM CDT
Astronomical Twilight 6:23 AM CDT 8:23 PM CDT
Moon 11:17 AM CDT (10/18) 9:49 PM CDT (10/18)
Length of Visible Light 12h 06m
Length of Day
11h 16m
Waxing Crescent, 14% of the Moon is Illuminated
Oct 18
Waxing Crescent
Oct 21
First Quarter
Oct 29
Full
Nov 6
Last Quarter
Nov 13
New

Hourly Weather History & Observations

Time (CDT) Temp. Dew Point Humidity Pressure Visibility Wind Dir Wind Speed Gust Speed Precip Events Conditions
12:52 AM 61.0 °F 39.9 °F 46% 29.81 in 10.0 mi NNE 4.6 mph - N/A   Clear
1:52 AM 57.9 °F 41.0 °F 53% 29.83 in 10.0 mi Calm Calm - N/A   Clear
2:52 AM 59.0 °F 36.0 °F 42% 29.85 in 10.0 mi NNE 4.6 mph - N/A   Clear
3:52 AM 57.9 °F 32.0 °F 37% 29.86 in 10.0 mi NE 5.8 mph - N/A   Clear
4:52 AM 55.9 °F 30.9 °F 39% 29.88 in 10.0 mi NE 3.5 mph - N/A   Clear
5:52 AM 55.9 °F 30.0 °F 37% 29.89 in 10.0 mi ENE 3.5 mph - N/A   Clear
6:52 AM 52.0 °F 32.0 °F 47% 29.92 in 10.0 mi Calm Calm - N/A   Clear
7:52 AM 52.0 °F 30.9 °F 45% 29.94 in 10.0 mi Calm Calm - N/A   Clear
8:52 AM 53.1 °F 39.0 °F 59% 29.99 in 10.0 mi NNW 3.5 mph - N/A   Clear
9:52 AM 57.9 °F 35.1 °F 42% 30.01 in 10.0 mi Calm Calm - N/A   Clear
10:52 AM 66.0 °F 34.0 °F 30% 30.01 in 10.0 mi NE 5.8 mph - N/A   Clear
11:52 AM 69.1 °F 23.0 °F 18% 30.02 in 10.0 mi ENE 10.4 mph - N/A   Clear
12:52 PM 71.1 °F 24.1 °F 17% 30.00 in 10.0 mi East 8.1 mph - N/A   Clear
1:52 PM 72.0 °F 25.0 °F 17% 29.99 in 10.0 mi NE 4.6 mph - N/A   Clear
2:52 PM 72.0 °F 24.1 °F 17% 29.96 in 10.0 mi East 3.5 mph - N/A   Clear
3:52 PM 75.0 °F 25.0 °F 16% 29.94 in 10.0 mi Calm Calm - N/A   Clear
4:52 PM 73.9 °F 26.1 °F 17% 29.94 in 10.0 mi Variable 3.5 mph - N/A   Clear
5:52 PM 73.9 °F 27.0 °F 18% 29.94 in 10.0 mi Calm Calm - N/A   Clear
6:52 PM 71.1 °F 28.0 °F 20% 29.95 in 10.0 mi NE 3.5 mph - N/A   Clear
7:52 PM 66.9 °F 30.9 °F 26% 29.97 in 10.0 mi East 3.5 mph - N/A   Clear
8:52 PM 61.0 °F 33.1 °F 35% 29.99 in 10.0 mi East 6.9 mph - N/A   Clear
9:52 PM 57.0 °F 35.1 °F 44% 29.99 in 10.0 mi ESE 3.5 mph - N/A   Clear
10:52 PM 55.9 °F 33.1 °F 42% 29.99 in 10.0 mi ESE 6.9 mph - N/A   Clear
11:52 PM 55.0 °F 33.1 °F 43% 29.99 in 10.0 mi ESE 6.9 mph - N/A   Clear